When you browse on this site, cookies collect data to enhance your experience and personalize the content and advertising you see.
Visit our Privacy Policy to learn more. By continuing to use the site, you agree to this use of cookies and data.
  • In Latvia
  • List of Countries
  • For 7 days
  • Water Temperature
  • Weather Map
  • Weather Widgets
  • user-avatar
    Login

    Hourly Weather Igls

    Today, 21 January, Tuesday

    Time Temperature Precipitation Wind Pressure Humidity
    00:00 -3°C° 0 mm 2 mps 699 mmHg 44%
    01:00 -3°C° 0 mm 2 mps 699 mmHg 44%
    02:00 -3°C° 0 mm 2 mps 699 mmHg 43%
    03:00 -2°C° 0 mm 2 mps 699 mmHg 43%
    04:00 -2°C° 0 mm 2 mps 699 mmHg 42%
    05:00 -2°C° 0 mm 2 mps 699 mmHg 41%
    06:00 -1°C° 0 mm 2 mps 699 mmHg 40%
    07:00 -1°C° 0 mm 2 mps 698 mmHg 39%
    08:00 +1°C° 0 mm 2 mps 698 mmHg 41%
    09:00 +3°C° 0 mm 2 mps 699 mmHg 43%
    10:00 +4°C° 0 mm 2 mps 699 mmHg 45%
    11:00 +5°C° 0 mm 2 mps 698 mmHg 49%
    12:00 +8°C° 0 mm 1 mps 698 mmHg 53%
    13:00 +9°C° 0 mm 1 mps 698 mmHg 57%
    14:00 +8°C° 0 mm 1 mps 698 mmHg 54%
    15:00 +7°C° 0 mm 1 mps 697 mmHg 51%
    16:00 +6°C° 0 mm 2 mps 697 mmHg 48%
    17:00 +5°C° 0 mm 2 mps 696 mmHg 44%
    18:00 +4°C° 0 mm 2 mps 696 mmHg 39%
    19:00 +3°C° 0 mm 2 mps 696 mmHg 35%
    20:00 +3°C° 0 mm 2 mps 696 mmHg 35%
    21:00 +3°C° 0 mm 2 mps 696 mmHg 35%
    22:00 +3°C° 0 mm 2 mps 696 mmHg 35%
    23:00 +3°C° 0 mm 2 mps 696 mmHg 35%

    Tomorrow, 22 January, Wednesday

    Time Temperature Precipitation Wind Pressure Humidity
    00:00 +3°C° 0 mm 2 mps 696 mmHg 36%
    01:00 +3°C° 0 mm 2 mps 696 mmHg 36%
    02:00 +3°C° 0 mm 2 mps 695 mmHg 36%
    03:00 +3°C° 0 mm 2 mps 695 mmHg 36%
    04:00 +3°C° 0 mm 2 mps 694 mmHg 36%
    05:00 +3°C° 0 mm 2 mps 694 mmHg 36%
    06:00 +3°C° 0 mm 2 mps 694 mmHg 36%
    07:00 +3°C° 0 mm 2 mps 694 mmHg 36%
    08:00 +5°C° 0 mm 1 mps 694 mmHg 39%
    09:00 +6°C° 0 mm 1 mps 694 mmHg 43%
    10:00 +7°C° 0 mm 1 mps 694 mmHg 46%
    11:00 +8°C° 0 mm 1 mps 694 mmHg 54%
    12:00 +8°C° 0 mm 0 mps 694 mmHg 61%
    13:00 +9°C° 0 mm 0 mps 694 mmHg 69%
    14:00 +8°C° 0 mm 0 mps 693 mmHg 65%
    15:00 +8°C° 0 mm 1 mps 693 mmHg 61%
    16:00 +7°C° 0 mm 1 mps 692 mmHg 57%
    17:00 +6°C° 0 mm 1 mps 692 mmHg 54%
    18:00 +5°C° 0 mm 1 mps 692 mmHg 51%
    19:00 +4°C° 0 mm 1 mps 692 mmHg 49%
    20:00 +4°C° 0 mm 1 mps 692 mmHg 47%
    21:00 +4°C° 0 mm 1 mps 692 mmHg 46%
    22:00 +4°C° 0 mm 1 mps 692 mmHg 45%
    23:00 +4°C° 0 mm 1 mps 692 mmHg 44%

    Day after tomorrow, 23 January, Thursday

    Time Temperature Precipitation Wind Pressure Humidity
    00:00 +4°C° 0 mm 1 mps 692 mmHg 43%
    01:00 +4°C° 0 mm 1 mps 692 mmHg 42%
    02:00 +4°C° 0 mm 1 mps 692 mmHg 41%
    03:00 +4°C° 0 mm 1 mps 692 mmHg 40%
    04:00 +4°C° 0 mm 1 mps 691 mmHg 39%
    05:00 +4°C° 0 mm 1 mps 691 mmHg 38%
    06:00 +4°C° 0 mm 1 mps 691 mmHg 38%
    07:00 +4°C° 0 mm 1 mps 691 mmHg 37%
    08:00 +5°C° 0 mm 1 mps 691 mmHg 40%
    09:00 +6°C° 0 mm 1 mps 691 mmHg 43%
    10:00 +7°C° 0 mm 1 mps 691 mmHg 45%
    11:00 +7°C° 0 mm 2 mps 691 mmHg 50%
    12:00 +8°C° 0 mm 2 mps 691 mmHg 54%
    13:00 +9°C° 0 mm 2 mps 690 mmHg 59%
    14:00 +8°C° 0 mm 2 mps 690 mmHg 58%
    15:00 +7°C° 0 mm 2 mps 689 mmHg 58%
    16:00 +6°C° 0 mm 2 mps 689 mmHg 58%
    17:00 +5°C° 0 mm 2 mps 689 mmHg 55%
    18:00 +3°C° 0 mm 3 mps 689 mmHg 52%
    19:00 +2°C° 0 mm 3 mps 689 mmHg 49%
    20:00 +3°C° 0 mm 2 mps 689 mmHg 48%
    21:00 +3°C° 0 mm 2 mps 689 mmHg 47%
    22:00 +3°C° 0 mm 2 mps 689 mmHg 46%
    23:00 +3°C° 0 mm 2 mps 689 mmHg 46%

    24 January, Friday

    Time Temperature Precipitation Wind Pressure Humidity
    00:00 +3°C° 0 mm 2 mps 689 mmHg 46%
    01:00 +3°C° 0 mm 2 mps 689 mmHg 45%
    02:00 +3°C° 0 mm 2 mps 688 mmHg 45%
    03:00 +3°C° 0 mm 2 mps 688 mmHg 46%
    04:00 +3°C° 0 mm 2 mps 687 mmHg 46%
    05:00 +3°C° 0 mm 2 mps 687 mmHg 47%
    06:00 +3°C° 0 mm 2 mps 687 mmHg 47%
    07:00 +3°C° 0 mm 2 mps 687 mmHg 48%
    08:00 +4°C° 0 mm 2 mps 687 mmHg 50%
    09:00 +5°C° 0 mm 2 mps 687 mmHg 53%
    10:00 +6°C° 0 mm 2 mps 688 mmHg 55%
    11:00 +7°C° 0 mm 2 mps 687 mmHg 58%
    12:00 +7°C° 0 mm 2 mps 687 mmHg 61%
    13:00 +9°C° 0 mm 1 mps 687 mmHg 64%
    14:00 +7°C° 0 mm 2 mps 686 mmHg 64%
    15:00 +6°C° 0 mm 2 mps 686 mmHg 65%
    16:00 +5°C° 0 mm 2 mps 686 mmHg 65%
    17:00 +5°C° 0 mm 2 mps 686 mmHg 65%
    18:00 +4°C° 0 mm 2 mps 686 mmHg 65%
    19:00 +3°C° 0 mm 2 mps 686 mmHg 65%
    20:00 +3°C° 0 mm 2 mps 686 mmHg 67%
    21:00 +2°C° 0 mm 2 mps 686 mmHg 68%
    22:00 +2°C° 0 mm 2 mps 686 mmHg 70%
    23:00 +2°C° 0 mm 2 mps 686 mmHg 72%

    25 January, Saturday

    Time Temperature Precipitation Wind Pressure Humidity
    00:00 +2°C° 0 mm 2 mps 686 mmHg 74%
    01:00 +2°C° 0 mm 2 mps 686 mmHg 76%
    02:00 +1°C° 0 mm 2 mps 685 mmHg 77%
    03:00 +2°C° 0 mm 1 mps 685 mmHg 79%
    04:00 +2°C° 0 mm 1 mps 685 mmHg 80%
    05:00 +2°C° 0 mm 1 mps 684 mmHg 79%
    06:00 +2°C° 0 mm 1 mps 684 mmHg 79%
    07:00 +2°C° 0 mm 1 mps 684 mmHg 78%
    08:00 +3°C° 0 mm 1 mps 685 mmHg 76%
    09:00 +4°C° 0 mm 1 mps 685 mmHg 74%
    10:00 +4°C° 0 mm 0 mps 685 mmHg 73%
    11:00 +4°C° 0 mm 0 mps 685 mmHg 74%
    12:00 +5°C° 0 mm 0 mps 685 mmHg 75%
    13:00 +6°C° 0 mm 1 mps 685 mmHg 76%
    14:00 +5°C° 0 mm 0 mps 685 mmHg 80%
    15:00 +5°C° 0 mm 0 mps 685 mmHg 84%
    16:00 +4°C° 0 mm 0 mps 685 mmHg 88%
    17:00 +3°C° 0 mm 0 mps 685 mmHg 89%
    18:00 +2°C° 0 mm 0 mps 685 mmHg 90%
    19:00 +2°C° 0 mm 0 mps 685 mmHg 90%
    20:00 +2°C° 0 mm 1 mps 685 mmHg 88%
    21:00 +2°C° 0 mm 1 mps 685 mmHg 86%
    22:00 +2°C° 0 mm 1 mps 686 mmHg 84%
    23:00 +2°C° 0 mm 1 mps 686 mmHg 82%

    26 January, Sunday

    Time Temperature Precipitation Wind Pressure Humidity
    00:00 +2°C° 0 mm 1 mps 686 mmHg 81%
    01:00 +2°C° 0 mm 1 mps 686 mmHg 80%
    02:00 +2°C° 0 mm 1 mps 685 mmHg 79%
    03:00 +2°C° 0 mm 1 mps 685 mmHg 78%
    04:00 +2°C° 0 mm 1 mps 685 mmHg 76%
    05:00 +2°C° 0 mm 1 mps 685 mmHg 76%
    06:00 +1°C° 0 mm 1 mps 685 mmHg 76%
    07:00 +1°C° 0 mm 1 mps 685 mmHg 75%
    08:00 +3°C° 0 mm 1 mps 686 mmHg 73%
    09:00 +4°C° 0 mm 1 mps 686 mmHg 72%
    10:00 +4°C° 0 mm 0 mps 687 mmHg 70%
    11:00 +5°C° 0 mm 0 mps 686 mmHg 69%
    12:00 +5°C° 0 mm 0 mps 686 mmHg 68%
    13:00 +6°C° 0 mm 0 mps 686 mmHg 67%
    14:00 +6°C° 0 mm 0 mps 685 mmHg 71%
    15:00 +5°C° 0 mm 0 mps 685 mmHg 74%
    16:00 +5°C° 0 mm 0 mps 685 mmHg 77%
    17:00 +4°C° 0 mm 0 mps 685 mmHg 77%
    18:00 +4°C° 0 mm 1 mps 685 mmHg 77%
    19:00 +3°C° 0 mm 1 mps 685 mmHg 77%
    20:00 +3°C° 0 mm 1 mps 686 mmHg 75%
    21:00 +3°C° 0 mm 1 mps 686 mmHg 72%
    22:00 +3°C° 0 mm 1 mps 686 mmHg 69%
    23:00 +3°C° 0 mm 1 mps 686 mmHg 66%
    Show more